{"data":{"norad_id":43759,"intl_designator":"2018-099B","name":"SIRION PATHFINDER-2","alt_names":[],"object_type":"PAYLOAD","status":"ACTIVE","operator":null,"country":"US","launch_date":"2018-12-03","launch_site_code":"AFWTR","launch_vehicle":null,"mission":null,"orbit_class":"UNKNOWN","rcs_meters":null,"size_class":null,"mass_kg":null,"dimensions":null,"purposes":["tech_demo"],"wikipedia_slug":null,"has_3d_model":false,"image_url":null,"decayed_at":null,"tle_current":{"epoch":"2026-05-25T02:56:02.506272Z","epoch_age_seconds":74870,"freshness":"FRESH","line1":"1 43759U 18099B   26145.12225123  .00004021  00000+0  22294-3 0  9999","line2":"2 43759  97.4269 194.7299 0009340  30.7530 329.4248 15.14302868409139","mean_motion":15.14302868,"eccentricity":0.000934,"inclination_deg":97.4269,"raan_deg":194.7299,"arg_perigee_deg":30.753,"mean_anomaly_deg":329.4248,"bstar":0.00022294,"rev_number":40913,"period_min":95.093262413342,"perigee_km":516.65005360217,"apogee_km":529.54155648199,"semimajor_km":6901.2328050421,"source":"CELESTRAK","updated_at":"2026-05-25T13:38:25.530257Z"}}}